Regional Weather Roundup
Issued by NWS

Home | Current Version | Previous Version | Graphics & Text | Print | Product List | Glossary On
Versions: 1 2 3 4 5 6 7 8 9 10 11 12 13 14 15 16 17 18 19 20 21 22 23 24 25 26 27 28 29 30 31 32 33 34 35 36 37 38 39 40 41 42 43 44 45 46 47 48 49 50
000
ASUS45 KBOU 170410
RWRCO

WEATHER ROUNDUP FOR COLORADO
NATIONAL WEATHER SERVICE DENVER/BOULDER CO
900 PM MST THU NOV 16 2017

NOTE: "FAIR" INDICATES FEW OR NO CLOUDS BELOW 12000 FEET WITH NO
SIGNIFICANT WEATHER AND/OR OBSTRUCTIONS TO VISIBILITY.

COZ001>005-013-030-031-170500-
...NORTHWEST COLORADO...

CITY           SKY/WX    TMP DP  RH WIND       PRES   REMARKS
CRAIG          FAIR      54  27  35 SW18G35   29.83F
HAYDEN         FAIR      49  28  44 SW10      29.85F
MEEKER         FAIR      54  27  35 S24G33    29.84F
RABBIT EARS PA MOCLDY    34  27  75 S9G26     29.99F WCI  26
STEAMBOAT SPGS FAIR      46  26  45 E5        29.86F
WALDEN         FAIR      41  23  48 SW23      29.88F
$$

COZ006>008-011-170500-
...WEST CENTRAL VALLEYS...

CITY           SKY/WX    TMP DP  RH WIND       PRES   REMARKS
GRAND JUNCTION MOCLDY    49  25  39 SE5       29.87F
MONTROSE       FAIR      61  23  23 VRB3      29.95F
EAGLE          MOCLDY    53  29  39 W7        29.93F
RIFLE          FAIR      48  26  42 CALM      29.89S
DELTA          FAIR      55  28  34 N6        29.93R
NUCLA          MOCLDY    57  21  24 S6        30.03R
$$

COZ017>023-064>068-170500-
...SOUTHWEST COLORADO...

CITY           SKY/WX    TMP DP  RH WIND       PRES   REMARKS
DURANGO        CLOUDY    47  23  38 E3        30.09F
CORTEZ         FAIR      45  24  43 E6        30.05S
PAGOSA SPRINGS CLOUDY    47  20  34 NE6       30.16S
TELLURIDE      FAIR      47  23  37 SE16      30.14F
WOLF CREEK PAS FAIR      30  23  74 S28G38    30.28F WCI  16
$$

COZ009-010-012-014-032>034-037-058>063-170500-
...CENTRAL COLORADO...

CITY           SKY/WX    TMP DP  RH WIND       PRES   REMARKS
ASPEN          MOCLDY    46  28  49 VRB5      29.97F
BUENA VISTA    CLOUDY    42  34  73 E5        30.03S
COPPER MTN     MOCLDY    36  25  64 MISG      30.13F
BERTHOUD PASS  CLOUDY    28  18  64 W26G45    30.10R WCI  13
COTTONWOOD PAS CLOUDY    46  34  61 CALM      30.09S
GUNNISON       FAIR      40  35  83 N5        30.06F
KREMMLING      FAIR      54  30  40 SW15G21   29.94F
LEADVILLE      CLOUDY    40  22  48 S13       30.05S
MONARCH PASS   CLOUDY    30  30 100 SW33G46   30.25S WCI  14
SALIDA         MOCLDY    47  37  66 SW3       30.10S
SUNLIGHT       FAIR      32  25  74 SW21G37   30.07F WCI  20
WILKERSON PASS FAIR      32  28  86 SW16G28   30.12F WCI  21
$$

COZ069>075-170500-
...SAN LUIS VALLEY/SANGRE DE CRISTO MOUNTAINS...

CITY           SKY/WX    TMP DP  RH WIND       PRES   REMARKS
ALAMOSA        FAIR      43  31  62 S16       30.10R
DEL NORTE      FAIR      49  22  34 SW18G26   30.09S
LA VETA PASS   FAIR      39  28  65 S29G46      N/A
SAGUACHE       FAIR      37  32  81 CALM      30.08S
$$

COZ035-036-038>040-170500-
...NORTHERN COLORADO FRONT RANGE...

CITY           SKY/WX    TMP DP  RH WIND       PRES   REMARKS
DENVER INTL AP MOCLDY    58  23  26 SW16      29.77F
DMNS CITY PARK   N/A     61  24  23 SE10G20   29.78R
AURORA         MOCLDY    59  26  28 SW18G26   29.79F
FRONT RANGE AP FAIR      62  26  25 SW16G23   29.79S
ERIE MUNI ARPT FAIR      46  26  45 W6        29.81R
BOULDER MUN AP FAIR      63  27  25 SW20G30   29.74F
CENTENNIAL     MOCLDY    57  27  31 SW15G22   29.81S
BROOMFIELD     MOCLDY    63  25  23 SW10G17   29.79S
FORT COLLINS   FAIR      56  29  35 W7        29.74R
LONGMONT       FAIR      64  25  22 SE7       29.76F
$$

COZ041-046-047-076>085-087-088-170500-
...PIKES PEAK/PALMER DIVIDE AND SOUTHERN FOOTHILLS...

CITY           SKY/WX    TMP DP  RH WIND       PRES   REMARKS
COLO. SPRINGS  FAIR      59  29  31 SW22      29.88R
A. F. ACADEMY  FAIR      55  28  35 W18G35    29.88F
SCHRIEVER AFB  FAIR      56  26  31 W8G16     29.88R
CHEYENNE MTN   FAIR      55  27  34 E18G43    29.79S
ELLICOTT         N/A    N/A N/A N/A W15       29.87R
FALCON         FAIR      55  26  32 W29G38    29.89F
FORT CARSON    FAIR      61  29  29 SW23G38   29.83F
LIMON          FAIR      58  22  24 W14       29.81R
MONUMENT HILL  FAIR      50  27  40 SW18G26   29.91R
CANON CITY     CLEAR     54  32  43 S5        29.90R
WALSENBURG     FAIR      61  30  31 W36G47    29.89R
TRINIDAD       FAIR      61  28  28 NW8       29.92S
$$

COZ042>045-048>051-090-091-170500-
...NORTHEAST COLORADO...

CITY           SKY/WX    TMP DP  RH WIND       PRES   REMARKS
GREELEY ARPT   FAIR      61  27  27 SW14      29.74R
AKRON          FAIR      48  21  34 W12       29.71F
BURLINGTON     FAIR      53  28  38 S16       29.74F
WRAY           NOT AVBL
YUMA           FAIR      45  23  42 W9        29.69S
STERLING       FAIR      45  28  53 SE5       29.68F
HOLYOKE        FAIR      43  30  61 W8        29.69F
FORT MORGAN    FAIR      51  22  32 W13       29.73S
$$

COZ086-089-092>099-170500-
...SOUTHEAST COLORADO...

CITY           SKY/WX    TMP DP  RH WIND       PRES   REMARKS
PUEBLO         FAIR      56  29  35 W12       29.82S
LA JUNTA       FAIR      56  28  34 W15       29.80R
LAMAR          FAIR      51  26  37 SW13      29.73F
SPRINGFIELD      N/A     50  28  42 SW8       29.84R
$$



USA.gov is the U.S. government's official web portal to all federal, state and local government web resources and services.